TimeCST,TemperatureF,Dew PointF,Humidity,Sea Level PressureIn,VisibilityMPH,Wind Direction,Wind SpeedMPH,Gust SpeedMPH,PrecipitationIn,Events,Conditions,WindDirDegrees,DateUTC
12:53 AM,48.0,42.1,80,30.25,10.0,Calm,Calm,-,N/A,,Clear,0,2011-11-18 06:53:00
1:53 AM,46.0,42.1,86,30.23,10.0,Calm,Calm,-,N/A,,Clear,0,2011-11-18 07:53:00
2:53 AM,44.1,41.0,89,30.21,10.0,Calm,Calm,-,N/A,,Clear,0,2011-11-18 08:53:00
3:53 AM,45.0,41.0,86,30.19,10.0,Calm,Calm,-,N/A,,Partly Cloudy,0,2011-11-18 09:53:00
4:53 AM,46.0,41.0,83,30.18,10.0,Calm,Calm,-,N/A,,Partly Cloudy,0,2011-11-18 10:53:00
5:53 AM,51.1,41.0,68,30.19,10.0,East,4.6,-,N/A,,Overcast,80,2011-11-18 11:53:00
6:53 AM,51.1,39.0,63,30.19,10.0,East,4.6,-,N/A,,Overcast,90,2011-11-18 12:53:00
7:53 AM,51.1,39.9,66,30.19,10.0,East,5.8,-,N/A,,Overcast,80,2011-11-18 13:53:00
8:53 AM,53.1,42.1,66,30.19,10.0,East,4.6,-,N/A,,Overcast,90,2011-11-18 14:53:00
9:53 AM,55.0,43.0,64,30.18,10.0,East,5.8,-,N/A,,Overcast,80,2011-11-18 15:53:00
10:53 AM,57.9,46.0,65,30.17,10.0,East,3.5,-,N/A,,Overcast,80,2011-11-18 16:53:00
11:53 AM,61.0,48.0,62,30.13,10.0,East,3.5,-,N/A,,Overcast,100,2011-11-18 17:53:00
12:53 PM,66.0,50.0,56,30.08,10.0,SSE,8.1,-,N/A,,Overcast,150,2011-11-18 18:53:00
1:53 PM,68.0,52.0,56,30.04,10.0,SSE,6.9,-,N/A,,Overcast,150,2011-11-18 19:53:00
2:53 PM,72.0,54.0,53,30.00,10.0,SSE,5.8,-,N/A,,Overcast,160,2011-11-18 20:53:00
3:53 PM,73.9,55.0,52,29.98,10.0,South,5.8,-,N/A,,Overcast,190,2011-11-18 21:53:00
5:53 PM,73.0,57.9,59,29.96,10.0,SE,10.4,-,N/A,,Overcast,140,2011-11-18 23:53:00
6:53 PM,72.0,60.1,66,29.96,10.0,SSE,11.5,19.6,N/A,,Overcast,150,2011-11-19 00:53:00
7:53 PM,71.1,60.1,68,29.97,10.0,SSE,6.9,-,N/A,,Overcast,150,2011-11-19 01:53:00
8:50 PM,69.8,60.8,73,29.98,10.0,SE,8.1,-,N/A,,Overcast,140,2011-11-19 02:50:00
8:53 PM,71.1,61.0,70,29.98,10.0,SE,8.1,-,N/A,,Overcast,140,2011-11-19 02:53:00
9:49 PM,71.6,62.6,73,29.99,10.0,SSE,8.1,-,N/A,,Overcast,160,2011-11-19 03:49:00
9:53 PM,71.1,62.1,73,29.98,10.0,SSE,10.4,-,N/A,,Overcast,160,2011-11-19 03:53:00
10:18 PM,71.6,62.6,73,29.98,10.0,SSE,10.4,-,N/A,,Overcast,150,2011-11-19 04:18:00
10:53 PM,71.1,63.0,75,29.96,10.0,SSE,10.4,-,N/A,,Overcast,150,2011-11-19 04:53:00
11:53 PM,71.1,63.0,75,29.96,10.0,SSE,9.2,-,N/A,,Overcast,160,2011-11-19 05:53:00